Regional Weather Roundup
Issued by NWS Binghamton, NY

Home | Current Version | Previous Version | Text Only | Print | Product List | Glossary On
Versions: 1 2 3 4 5 6 7 8 9 10 11 12 13 14 15 16 17 18 19 20 21 22 23 24 25 26 27 28 29 30 31 32 33 34 35 36 37 38 39 40 41 42 43 44 45 46 47 48 49 50
359
ASUS41 KBGM 291410
RWRBGM

REGIONAL WEATHER ROUNDUP
NATIONAL WEATHER SERVICE BINGHAMTON NY
1000 AM EDT WED MAR 29 2017

Note: "fair" indicates few or no clouds below 12,000 feet with no
significant weather and/or obstructions to visibility.

* = Station(s) that does not report precipitation, such as rain,
snow, etc, also no thunder or fog.

NYZ009-015>018-022>025-036-037-044>046-055>057-062-291500
...Central New York...

CITY           SKY/WX    TMP DP  RH WIND       PRES   REMARKS
Binghamton     SUNNY     39  28  64 N22       30.13R WCI  29
Cortland       FAIR      41  30  65 N8        30.19R
Dansville      PTSUNNY   42  35  76 NW8       30.23S
Elmira         MOSUNNY   42  31  64 N10G18    30.21R
Seneca Falls   SUNNY     43  32  65 N10       30.25R
Ithaca         MOSUNNY   40  32  73 NW10      30.21R WCI  33
Hamilton       MOSUNNY   39  28  65 N14G21    30.17R WCI  31
Monticello     SUNNY     39  28  65 N16G28    30.09R WCI  30
Norwich        MOSUNNY   39  27  60 N16G24    30.16R WCI  30
Oneonta        SUNNY     36   9  32 N8G16     30.11R WCI  29
Penn Yan       SUNNY     41  28  60 VRB7      30.23R
Rome           CLOUDY    37  32  82 W7        30.21R WCI  32
Sidney         MOSUNNY   39  28  65 N15G21    30.15R WCI  31
Syracuse       MOSUNNY   41  29  62 N14       30.23R
$$

PAZ038>040-043-044-047-048-072-291500
...Northeast Pennsylvania...

CITY           SKY/WX    TMP DP  RH WIND       PRES   REMARKS
Hazleton       PTSUNNY   45  32  61 N10       30.15R
Scranton       CLOUDY    43  32  65 N9G21     30.14R
$$
&&
KEY
WCI = Wind Chill Index
VSB = Visibility
HX  = Heat Index
$$




USA.gov is the U.S. government's official web portal to all federal, state and local government web resources and services.